Overview Statistics Trail Chart Weather Telemetry Raw packets
 

This is the latest recevied weather packets stored in our database for station/object EA1IDU-12. If no packets are shown the sender has not sent any weather packets the latest 10 day(s).

<< 5 6 7 8 9 10 11 >>
Time Temp. Humidity Pressure Rain* Wind** Luminosity Snow
1788467111 22.22° C 24% 1032.9 hPa - - - -
1788466210 22.78° C 22% 1032.7 hPa - - - -
1788465310 22.78° C 22% 1032.6 hPa - - - -
1788464410 23.89° C 22% 1032.4 hPa - - - -
1788463510 24.44° C 20% 1032.2 hPa - - - -
1788462610 25.56° C 20% 1032 hPa - - - -
1788461710 26.11° C 20% 1031.6 hPa - - - -
1788460809 26.67° C 19% 1031.6 hPa - - - -
1788459909 28.33° C 18% 1031.6 hPa - - - -
1788459009 31.11° C 17% 1031.6 hPa - - - -
1788458109 35° C 14% 1031.6 hPa - - - -
1788457209 36.11° C 15% 1031.6 hPa - - - -
1788456309 36.67° C 14% 1031.7 hPa - - - -
1788455408 37.22° C 13% 1031.6 hPa - - - -
1788454508 37.78° C 13% 1031.6 hPa - - - -
1788453608 38.33° C 13% 1031.6 hPa - - - -
1788452708 38.89° C 13% 1031.6 hPa - - - -
1788451808 38.89° C 13% 1031.4 hPa - - - -
1788450907 38.89° C 13% 1031.6 hPa - - - -
1788450007 38.89° C 13% 1031.5 hPa - - - -
1788449107 38.33° C 13% 1031.7 hPa - - - -
1788448207 38.33° C 14% 1031.7 hPa - - - -
1788447307 38.33° C 14% 1031.8 hPa - - - -
1788446407 39.44° C 15% 1031.9 hPa - - - -
1788445506 38.89° C 14% 1032.1 hPa - - - -

* Rain since midnight (hover to see other rain measurements)
** Current wind speed in m/s (hover to see current wind gust speed)